COSMOS 1275 DEB, 12690

Orbit data source: Space-Track

COSMOS 1275 DEB, 12690 is space debris in LEO originally from a launch on Thu, 04 Jun 1981 UTC launched from the Plesetsk Missile And Space Complex (PKMTR). Debris objects in space refer to the collection of defunct objects orbiting the Earth. Examples of debris include non-operational satellites, rocket bodies, and fragments generated from explosions, collisions, or faulty payload assembly.

Loading next visibility...
Identifier
12690, 1981-053AJ
Orbit
LEO
Last TLE update
10 hours ago
Origin
Manufacturer
Unknown
Mission
Spacecraft
Bus & Motor
Unknown
Mass
Unknown
Launch date (UTC)
1981-06-04 (44 years ago)
Launch vehicle
Unknown
Launch site
Plesetsk Missile And Space Complex (PKMTR)
Object type
Payload
Rocket body
Debris
Shape & HBR
Unknown
Radar Cross Section
Medium (>0.1 m² and <1 m²)

Expand to show TLE details & history

TLE from 10 hours ago
0 COSMOS 1275 DEB
1 12690U 81053AJ  25199.54726725  .00000873  00000-0  73174-3 0  9992
2 12690  82.9505 225.9501 0088968 342.0848 171.6486 13.85363782197917
Epoch: 2025-07-18T13:08Z
TLE epoch observation values (Epoch: 2025-07-18T13:08:03.89Z)
Latitude
25.9396°
Longitude
-91.094°
Altitude
1,012.565 km
Speed
7.315 km/s
True Right ascension
02h 50m 04s
True Declination
25° 48' 33"
Sunlit
Object was in daylight at epoch
Visualization orbit readout
Latitude
59.61911°
Longitude
104.13743°
Altitude
942.464 km
Speed
7.392 km/s
Apparent Right ascension
20h 45m 48s
Apparent Declination
26° 45' 38"
Sunlit
Object is in daylight
Visualization observer readout
Local Sidereal Time
11:52:20
Azimuth
41.305° NE
Elevation
-10.447°
Doppler factor
1
Orbital elements
Apogee altitude
1,007.184 km
Perigee altitude
876.931 km
Semi-major axis
7,320.194 km
Eccentricity
0.0089
Inclination
82.9505°
RAAN
225.9501°
Arg. of periapsis
342.0848°
True anomaly
171.79506°
Mean anomaly
171.6486°
Eccentric anomaly
171.72199°
Mean motion
3.46545 °/min
Orbital period
103.88 mins
BSTAR
0.00073174
Loading maneuver chart data...
Loading SW <> Apogee altitude chart data...
Loading historical data...
Loading historical data...
Loading historical data...
Loading historical data...
Loading historical data...
Loading historical data...
Loading historical data...
|